Temperature
15 16 16 17 14 12 14 14 15 15 15 16 17 16 16 16 16 16 16 16 17 16 16 16 16 16 16 16 16 16 16 16 16 16 16 16 15 15 15 15 15 15 15 15 15 15 15 15 15
15 16 16 16 12 13 14 14 14 15 16 16 16 16 16 15 16 16 16 16 16 16 16 16 16 16 16 16 16 16 16 16 16 16 16 15 15 15 15 15 15 15 15 15 15 15 15 15 15
14 15 15 12 12 13 14 14 14 15 16 16 15 15 15 15 15 15 16 16 16 16 16 16 15 15 16 16 16 16 16 16 15 15 15 15 15 15 15 15 15 15 15 15 15 15 14 14 14
14 15 14 11 13 13 13 14 13 14 15 15 15 14 15 15 15 15 16 16 16 16 16 15 15 15 15 15 16 16 15 15 15 15 15 15 15 15 15 15 15 15 15 15 15 15 14 14 14
14 14 11 11 12 12 12 13 14 14 14 14 14 14 14 15 15 15 15 15 15 15 15 15 15 15 15 15 15 15 15 15 15 15 15 15 15 15 15 15 15 15 15 15 14 14 14 14 14
13 11 11 11 12 12 12 13 13 13 13 14 14 13 14 15 15 15 15 15 15 15 15 15 15 15 15 15 15 15 15 15 15 15 15 15 15 15 15 15 15 14 14 14 14 14 14 14 14
11 9 10 11 11 12 13 13 13 12 12 13 14 13 14 14 14 14 14 14 14 15 15 15 15 15 15 15 15 15 15 15 15 15 15 14 14 15 15 15 14 14 14 14 14 14 14 14 14
12 9 10 10 11 12 12 13 13 13 13 14 14 13 13 14 14 14 14 14 14 14 14 14 14 14 14 14 14 14 14 14 14 14 14 14 14 14 14 14 14 14 14 14 14 13 13 13 13
11 9 9 10 11 11 12 12 13 13 13 13 13 13 13 13 13 14 14 14 14 14 14 14 14 14 14 14 14 14 14 14 14 14 14 14 14 14 14 14 14 14 14 13 13 13 13 13 13
10 8 9 10 10 10 11 11 12 12 11 12 12 13 13 13 13 13 13 13 14 14 14 14 14 14 14 14 14 14 14 14 14 14 14 14 14 14 14 14 14 14 13 13 13 13 13 13 13
8 8 9 10 10 11 10 11 11 11 10 11 12 12 12 12 13 13 13 13 13 13 13 13 13 13 13 13 13 13 13 13 13 13 13 13 13 13 13 14 13 13 13 13 13 13 13 13 12
8 8 9 9 10 10 10 10 10 10 11 12 12 12 12 12 12 12 12 13 13 13 13 13 13 13 13 13 13 13 13 13 13 13 13 13 13 13 13 13 13 13 13 13 13 13 12 12 12
8 8 9 9 9 9 10 9 9 10 11 11 11 11 11 11 11 11 12 12 13 13 13 13 13 13 13 13 13 13 13 13 13 13 13 13 13 13 13 13 13 13 13 13 12 12 12 12 12
8 8 8 8 9 9 8 9 9 9 10 10 11 11 11 11 11 11 11 12 12 13 13 13 12 12 12 13 13 12 13 13 13 13 13 13 13 13 13 13 13 13 13 12 12 12 12 12 12
8 7 8 8 8 8 8 8 8 9 10 10 10 10 10 10 11 11 11 11 12 12 12 12 12 12 12 12 12 12 12 12 12 12 12 12 12 12 12 12 12 12 12 12 12 12 12 11 11
7 7 7 7 7 8 8 8 8 9 9 8 9 9 9 10 10 10 10 11 11 11 12 12 12 11 12 12 12 12 12 12 12 12 12 12 12 12 12 12 12 12 12 12 12 11 11 11 11
6 6 6 7 7 7 7 7 7 8 8 8 8 8 9 9 10 10 10 10 11 11 11 11 11 11 11 11 11 11 11 12 12 12 12 12 12 11 11 12 11 11 11 11 11 11 11 11 11
6 6 6 6 7 7 7 6 6 7 7 7 7 8 8 8 9 9 10 10 10 10 11 11 11 11 11 11 11 11 11 11 11 11 11 11 11 11 11 11 11 11 11 11 11 11 10 10 10
6 6 6 6 6 6 6 6 6 6 6 6 6 7 8 8 8 9 9 10 10 10 10 10 10 10 10 10 10 11 11 11 11 11 11 11 11 11 11 11 11 11 11 11 10 10 10 10 10
5 6 5 5 6 6 6 5 6 6 6 6 6 6 7 7 8 9 9 9 9 10 10 10 10 10 10 10 10 10 10 10 10 10 10 10 10 10 10 10 10 10 10 10 10 10 10 9 9
5 5 5 5 5 5 6 6 6 6 6 6 6 6 6 6 7 8 8 9 9 9 9 9 9 9 9 10 10 10 10 10 10 10 10 10 10 10 10 10 10 10 10 10 10 10 9 9 9
5 6 6 5 5 5 5 6 6 6 5 5 5 6 6 6 6 7 8 8 8 8 8 8 8 9 9 9 9 9 9 9 9 10 10 10 10 10 10 10 10 10 10 10 9 9 9 9 9
5 5 5 5 5 4 4 5 5 5 5 5 5 5 6 6 6 6 7 7 8 8 8 8 8 8 8 8 8 8 8 9 9 9 9 10 10 9 9 9 9 9 9 9 9 9 9 9 9
5 5 5 4 4 5 4 4 5 4 5 5 4 5 5 6 6 6 6 7 7 7 7 8 7 8 8 8 8 8 8 8 8 8 9 9 9 9 9 9 9 9 9 9 9 9 9 8 8
5 4 4 5 4 4 4 4 4 4 4 4 4 5 5 5 6 6 6 6 6 6 7 7 7 7 7 7 7 7 7 7 7 8 8 8 8 8 9 9 9 9 9 8 8 8 8 8 8
4 4 5 5 5 4 3 4 4 3 4 4 4 4 5 5 5 5 5 5 5 6 6 6 6 6 6 6 7 7 7 7 7 7 7 7 7 8 8 8 8 8 8 8 8 8 8 8 8
4 3 3 3 2 3 3 3 3 3 3 3 3 4 4 4 5 5 5 5 5 5 5 5 5 6 6 6 6 6 6 6 6 6 7 7 7 7 7 7 8 8 8 8 8 7 8 7 7
3 2 2 3 4 4 4 3 4 3 3 3 2 3 3 4 4 4 5 4 4 4 4 5 5 5 5 5 5 5 5 6 6 6 6 6 7 7 7 7 7 7 7 7 7 7 7 7 7
3 2 2 1 2 3 4 5 3 3 3 2 2 3 3 4 4 4 4 4 4 4 4 4 4 4 4 5 5 5 5 5 5 5 6 6 6 6 6 6 6 6 7 7 7 7 7 7 7
2 2 2 3 2 1 2 4 3 1 2 2 2 3 3 3 3 3 3 3 3 3 3 3 4 4 4 4 4 4 4 5 5 5 5 5 6 6 6 6 6 6 6 6 6 6 6 6 6
Wind_Speed
11 7 2 4 5 3 3 4 2 1 1 1 1 3 5 4 4 2 1 3 5 5 7 10 10 10 10 11 11 11 12 12 12 12 12 13 13 13 13 13 13 13 14 14 14 14 14 15 15
6 3 4 4 4 2 4 4 3 2 2 0 2 2 3 1 1 2 1 1 4 6 8 10 10 10 11 11 11 11 11 12 12 11 12 12 12 12 12 12 12 12 13 13 13 13 13 14 14
4 3 4 4 4 6 5 3 3 2 1 1 2 2 2 1 1 1 2 4 4 5 8 10 11 10 10 11 11 10 11 11 11 11 11 11 12 11 11 11 11 11 12 12 12 13 12 13 13
3 4 4 3 6 5 3 1 2 0 2 3 2 2 1 2 0 1 3 6 6 5 7 10 11 10 10 10 10 10 11 11 11 10 10 10 11 11 11 11 10 10 11 11 11 12 12 12 13
4 3 2 2 6 3 2 2 0 1 1 2 2 2 1 3 2 4 6 6 7 5 6 8 10 10 10 10 10 10 10 10 10 10 10 10 10 10 10 10 10 10 10 10 10 11 11 12 12
3 3 3 6 6 3 2 2 1 1 1 1 2 2 1 1 3 4 5 5 5 5 6 7 9 10 9 9 9 9 9 9 9 10 9 9 9 9 9 9 9 9 9 9 9 9 10 11 11
3 3 5 5 4 3 1 1 2 1 0 1 1 2 1 1 2 4 5 5 5 5 5 5 6 7 8 8 8 9 9 9 9 9 9 9 9 8 9 8 8 8 8 8 8 9 10 10 10
3 3 3 4 5 4 1 0 0 1 2 1 2 3 2 2 3 5 5 5 5 4 4 4 5 5 6 6 7 8 9 8 8 8 9 9 8 7 7 7 7 7 7 7 7 8 9 9 10
3 2 4 5 5 3 0 1 2 1 1 1 1 1 0 3 5 6 5 4 4 4 3 3 4 4 4 4 5 5 7 8 7 8 8 8 7 6 6 6 7 6 6 6 7 8 9 9 9
3 4 5 2 2 2 1 0 1 2 2 2 2 3 4 5 6 6 5 5 4 3 2 3 3 3 3 3 3 3 4 5 6 6 7 6 6 5 5 6 6 6 6 6 6 7 8 8 8
2 4 2 1 2 1 0 1 0 3 0 2 2 2 3 4 4 5 4 4 3 3 2 2 2 2 2 2 3 2 3 4 4 6 6 6 5 4 5 5 5 5 5 5 5 6 6 7 7
2 1 1 1 2 2 1 0 1 1 3 2 2 3 4 3 3 4 4 2 1 2 1 1 1 2 2 2 2 2 2 3 3 4 5 6 4 4 4 4 4 4 4 5 5 5 6 6 6
2 1 1 2 2 1 1 1 1 2 3 1 1 2 3 3 3 2 2 2 2 2 1 1 1 1 1 2 1 2 2 2 3 4 5 5 4 3 3 3 4 4 4 5 5 5 5 5 5
2 1 0 1 2 1 0 2 0 3 1 2 1 2 3 3 2 1 0 1 1 2 2 2 1 1 1 1 1 1 2 2 3 4 4 5 5 4 4 3 3 4 4 5 5 5 5 4 4
1 2 2 2 1 1 1 2 2 3 1 1 0 1 2 1 0 1 2 2 2 2 1 2 2 1 1 1 1 1 2 2 2 3 5 5 5 5 4 3 3 4 5 5 5 5 4 3 3
1 2 0 2 1 1 3 3 2 1 3 1 1 1 1 1 1 2 2 1 1 1 0 1 1 1 1 1 1 1 1 2 2 3 4 5 6 6 5 3 3 5 5 5 4 4 3 2 2
2 2 2 3 1 0 2 4 3 1 2 0 2 2 1 2 3 3 3 2 1 1 1 0 0 1 1 1 0 0 1 1 2 3 4 5 6 7 5 4 3 5 5 4 4 3 3 3 2
3 3 2 3 3 1 2 4 6 4 1 2 3 2 1 2 3 3 2 2 1 0 0 0 1 0 1 0 0 0 0 0 0 1 3 5 5 7 6 4 4 5 4 3 3 3 2 3 3
3 3 3 4 3 1 3 5 6 4 2 2 3 2 2 2 3 2 2 2 2 1 1 0 1 1 1 1 1 1 2 2 1 1 2 4 5 6 6 4 3 5 4 4 4 3 3 2 2
2 2 2 3 3 1 3 6 6 4 3 3 3 2 1 2 4 3 3 3 2 1 1 2 1 1 1 1 1 1 1 2 2 2 2 4 5 6 6 5 5 5 5 4 4 3 2 2 2
2 4 4 3 4 3 2 5 3 1 1 0 1 1 0 1 3 3 3 3 2 2 2 2 2 2 2 1 0 1 1 1 1 2 2 2 4 5 6 6 5 5 6 6 6 6 5 4 3
3 3 3 2 1 2 1 3 6 2 2 1 1 1 1 2 3 2 3 3 3 3 3 2 2 2 2 1 1 1 2 3 3 3 3 3 3 5 6 6 6 6 6 6 7 6 4 5 4
3 0 1 1 1 1 1 2 6 1 3 4 3 3 2 2 2 2 3 3 3 3 3 3 2 2 2 2 2 3 3 3 2 2 3 3 3 4 6 7 6 6 6 7 7 6 5 5 5
2 3 3 3 2 2 3 3 6 4 4 3 3 3 2 3 3 3 3 3 4 4 4 3 3 3 3 3 2 3 4 3 3 3 3 3 3 3 5 6 6 7 6 7 7 7 7 6 6
3 4 2 3 2 4 2 3 7 5 4 4 4 3 3 2 3 4 4 4 5 5 5 4 4 4 4 4 4 4 5 5 5 5 5 4 4 4 5 5 6 6 7 7 7 6 7 7 7
1 4 4 3 4 3 2 5 6 3 3 2 1 2 2 2 3 4 4 4 4 5 5 5 5 5 4 4 5 5 4 4 4 5 5 5 5 5 5 6 6 7 7 7 7 6 7 7 8
3 2 2 4 1 2 5 6 6 1 2 1 0 2 3 3 4 4 4 4 4 5 5 5 5 5 5 5 5 5 5 5 5 5 5 5 5 4 5 6 7 7 7 8 7 6 7 7 7
2 4 3 3 2 3 5 5 4 4 4 2 1 3 5 4 5 5 4 4 5 5 6 5 5 5 6 5 5 5 5 5 5 5 5 5 5 5 5 6 6 7 7 8 8 6 7 7 6
2 2 3 3 3 3 3 6 4 6 5 4 3 4 5 5 5 5 5 5 5 5 5 6 5 6 6 5 5 6 5 5 5 5 5 5 5 6 6 6 7 7 7 7 8 8 8 8 7
2 3 5 3 3 3 3 6 3 2 2 2 3 5 5 5 5 5 5 5 5 6 6 6 6 6 6 6 5 6 5 4 4 5 5 5 6 6 6 6 6 7 7 7 8 8 8 8 8
Wind_Direction
337 344 44 55 62 62 226 240 227 244 226 249 180 140 144 141 148 177 326 132 122 142 154 147 138 132 128 123 116 121 122 120 118 115 113 111 107 105 102 100 99 97 95 95 95 93 93 92 92
337 356 51 64 112 186 247 234 221 222 211 113 58 79 93 81 67 98 105 144 131 141 146 143 135 133 130 125 120 118 119 119 120 118 117 116 112 108 104 101 100 99 97 97 97 96 94 93 92
339 34 83 93 155 191 214 207 208 280 322 69 64 57 103 98 107 151 194 147 119 127 137 140 135 134 133 128 123 120 122 121 118 120 121 120 117 113 107 104 101 101 101 101 99 99 97 97 96
42 48 65 112 208 216 215 227 212 318 18 37 90 57 46 23 351 178 147 130 120 113 127 140 138 137 136 133 129 126 126 126 124 120 122 123 120 117 112 110 107 105 106 105 103 105 102 101 101
50 83 109 209 229 235 238 275 246 68 12 13 96 93 356 354 59 108 124 128 123 114 117 140 142 140 138 137 135 133 129 131 131 128 123 122 122 120 116 114 113 111 109 109 108 108 108 107 107
56 81 153 212 226 242 256 282 64 50 12 16 87 88 337 34 72 102 115 119 115 117 109 127 145 144 141 141 143 139 137 134 138 135 129 124 123 123 122 120 117 115 113 114 115 111 113 112 111
118 132 194 198 208 227 237 247 150 171 113 259 142 114 314 45 92 110 113 111 107 105 102 110 126 139 144 142 146 145 143 140 139 138 133 127 123 126 126 125 124 119 120 118 119 116 116 114 115
129 126 188 208 201 221 254 352 149 152 224 287 131 141 205 195 129 109 108 106 100 90 93 94 106 117 128 144 148 153 153 149 142 139 134 129 127 130 129 127 128 126 124 124 122 122 121 116 116
102 115 208 210 199 206 256 56 346 356 97 22 26 141 205 145 127 115 107 97 91 81 74 77 79 94 108 129 144 149 158 154 145 138 135 133 126 128 132 133 133 132 130 131 127 125 124 118 116
112 189 216 216 198 183 281 153 296 40 41 28 21 29 75 115 129 130 130 135 137 137 105 77 74 82 101 116 126 137 145 147 143 138 134 131 130 132 140 140 139 138 137 136 131 126 126 120 116
148 193 214 270 281 219 235 313 5 128 277 212 171 134 117 116 132 143 152 158 170 169 147 125 94 90 95 90 114 124 130 131 130 133 134 131 129 130 134 133 131 129 129 122 121 117 118 122 123
154 230 205 288 310 317 239 208 35 173 227 216 165 145 142 140 153 169 171 173 179 174 176 162 125 105 98 104 109 120 124 130 128 135 138 136 131 130 133 133 133 130 129 123 120 117 121 124 128
188 225 329 324 337 333 16 245 219 272 280 342 81 119 154 168 186 191 189 174 169 180 199 222 168 142 122 109 114 115 125 145 154 151 151 148 146 152 145 143 142 141 141 139 134 128 127 124 124
185 135 22 332 333 337 127 293 218 276 321 67 95 162 173 165 190 185 182 208 208 210 213 220 206 198 158 143 137 144 148 160 162 160 165 162 156 155 155 157 153 155 156 152 147 144 137 131 131
145 102 6 327 293 261 114 338 228 250 120 94 247 195 165 155 143 227 240 224 222 226 229 224 214 204 187 192 168 146 165 170 171 175 172 170 171 168 163 171 179 173 168 153 139 131 125 126 129
95 110 244 303 1 269 142 236 256 242 111 99 279 233 222 261 274 272 269 253 235 196 232 256 260 231 215 218 193 159 174 177 178 185 180 183 183 180 171 172 195 178 166 155 148 142 135 137 137
63 169 234 291 326 314 167 231 272 328 113 191 265 259 276 313 315 307 291 273 252 214 214 273 331 212 230 246 161 146 169 183 191 188 186 192 190 186 177 178 181 167 158 158 162 152 150 156 148
192 184 228 262 308 56 228 255 283 288 196 229 251 256 256 300 296 304 307 314 292 209 173 237 307 249 219 220 126 155 159 236 212 210 200 196 194 187 179 173 178 161 154 163 162 158 146 152 147
154 172 226 264 285 285 239 263 277 285 262 247 243 238 247 277 303 327 338 350 9 42 40 331 275 278 194 206 222 232 243 241 237 241 224 203 199 190 180 178 178 170 174 178 165 157 147 150 130
160 189 258 297 330 318 264 282 280 267 245 226 214 218 235 340 342 347 360 6 14 12 353 337 308 269 238 233 232 237 249 243 239 240 236 218 205 196 188 180 191 183 177 170 170 153 151 162 159
198 201 223 263 334 3 330 302 277 269 236 175 188 167 60 316 313 322 346 348 351 351 327 321 309 299 281 271 337 9 356 332 285 272 263 248 214 203 195 192 193 191 186 187 185 178 172 181 199
231 211 186 204 43 316 27 279 281 274 276 258 276 297 301 296 297 313 335 334 330 318 318 308 298 295 288 256 214 204 246 258 255 255 258 266 233 211 201 197 199 196 192 192 194 192 188 175 189
206 173 137 186 148 316 309 220 280 274 240 243 240 238 254 281 282 301 315 309 314 322 319 311 312 303 298 271 238 229 253 264 275 273 258 256 248 225 210 203 202 203 198 199 198 196 194 193 192
150 70 49 46 81 263 225 196 270 234 232 248 242 247 260 281 301 310 322 327 326 335 335 331 316 309 308 297 266 243 247 256 267 269 259 256 252 235 220 212 208 206 201 203 204 199 197 201 199
93 104 38 354 343 249 199 212 250 251 241 228 236 252 269 275 308 325 333 330 329 334 334 333 326 310 308 298 286 260 250 245 242 247 245 251 250 244 228 216 213 207 205 202 199 201 202 200 200
161 142 163 204 231 280 282 239 257 264 272 242 229 255 288 304 306 308 308 309 314 319 325 327 323 314 307 296 286 276 262 255 255 252 249 244 245 240 229 218 220 211 205 203 199 205 206 202 203
133 144 151 129 95 284 269 285 300 275 311 319 346 342 308 296 301 303 307 310 313 317 313 309 308 308 306 300 295 280 268 258 258 258 257 255 253 249 228 225 226 214 207 202 200 207 207 203 206
123 140 108 123 159 270 289 274 259 254 259 270 303 300 300 306 314 314 310 306 307 306 307 304 295 294 296 295 287 291 276 266 263 264 261 261 261 253 239 233 229 220 213 206 204 207 206 202 207
122 116 115 118 155 178 267 274 243 218 213 220 254 278 291 302 303 303 304 300 302 310 310 304 302 305 303 296 288 282 280 273 270 267 265 266 269 259 246 239 227 221 215 210 206 209 202 203 207
169 171 154 163 220 193 207 271 296 219 212 225 277 293 300 298 298 301 302 305 311 314 313 311 305 301 298 292 286 280 278 278 272 272 272 270 268 265 254 243 231 219 213 206 207 210 204 205 205
Height
1499 1500 1501 1503 1508 1518 1519 1514 1510 1509 1508 1507 1507 1508 1509 1511 1515 1519 1514 1513 1515 1516 1519 1521 1523 1525 1526 1527 1529 1530 1531 1532 1533 1533 1534 1535 1536 1537 1538 1539 1539 1540 1540 1541 1541 1542 1542 1543 1543
1498 1500 1503 1503 1513 1522 1518 1511 1509 1508 1507 1506 1507 1507 1508 1510 1511 1512 1512 1513 1515 1517 1519 1521 1523 1525 1526 1528 1529 1530 1531 1532 1533 1534 1535 1536 1537 1538 1539 1539 1540 1540 1541 1541 1542 1542 1543 1544 1544
1498 1500 1502 1506 1514 1517 1512 1508 1507 1506 1506 1506 1506 1507 1509 1510 1511 1511 1512 1513 1515 1517 1519 1521 1523 1525 1526 1528 1529 1530 1531 1533 1534 1535 1535 1536 1537 1538 1539 1540 1540 1541 1541 1542 1542 1543 1544 1544 1545
1499 1501 1503 1509 1511 1509 1507 1506 1505 1505 1505 1506 1507 1508 1510 1511 1511 1511 1512 1513 1515 1517 1519 1521 1523 1525 1526 1528 1529 1530 1532 1533 1534 1535 1536 1537 1538 1538 1539 1540 1541 1541 1542 1542 1543 1544 1544 1545 1545
1498 1500 1506 1511 1509 1506 1505 1504 1504 1504 1505 1506 1507 1508 1510 1511 1511 1511 1512 1514 1515 1517 1519 1521 1523 1525 1526 1528 1529 1531 1532 1533 1534 1535 1536 1537 1538 1539 1539 1540 1541 1541 1542 1543 1543 1544 1545 1545 1546
1499 1500 1510 1511 1507 1505 1504 1504 1504 1505 1505 1506 1507 1508 1510 1511 1511 1511 1512 1514 1516 1517 1519 1521 1523 1525 1526 1528 1529 1530 1532 1533 1534 1535 1536 1537 1538 1539 1539 1540 1541 1542 1542 1543 1544 1544 1545 1546 1546
1500 1503 1507 1507 1507 1506 1504 1503 1504 1505 1505 1507 1507 1508 1510 1511 1511 1512 1513 1515 1516 1518 1519 1521 1523 1524 1526 1527 1529 1530 1531 1533 1534 1535 1536 1537 1538 1539 1539 1540 1541 1542 1542 1543 1544 1545 1545 1546 1547
1498 1503 1506 1507 1505 1504 1503 1503 1504 1505 1505 1507 1507 1508 1509 1510 1511 1512 1513 1515 1516 1518 1519 1521 1522 1524 1525 1527 1528 1530 1531 1532 1533 1534 1535 1536 1537 1538 1539 1540 1541 1541 1542 1543 1544 1545 1545 1546 1547
1498 1506 1506 1505 1504 1503 1502 1503 1504 1505 1505 1506 1507 1508 1508 1509 1510 1512 1513 1514 1516 1517 1519 1520 1522 1523 1524 1526 1527 1529 1530 1531 1532 1534 1535 1536 1537 1538 1539 1540 1540 1541 1542 1542 1543 1544 1545 1546 1546
1498 1505 1503 1502 1502 1502 1502 1502 1504 1504 1505 1505 1506 1507 1508 1509 1509 1510 1511 1512 1513 1515 1517 1519 1520 1521 1523 1525 1526 1527 1529 1530 1531 1532 1534 1535 1536 1537 1538 1539 1540 1541 1541 1542 1543 1544 1544 1545 1546
1499 1501 1501 1501 1501 1501 1501 1502 1503 1504 1505 1505 1505 1506 1507 1508 1509 1510 1511 1511 1512 1514 1516 1518 1519 1520 1521 1523 1524 1526 1527 1528 1530 1531 1532 1533 1534 1536 1537 1537 1538 1540 1541 1541 1542 1543 1544 1544 1545
1499 1500 1500 1501 1501 1500 1500 1501 1503 1503 1504 1504 1505 1505 1505 1506 1507 1509 1510 1511 1512 1513 1515 1516 1518 1519 1520 1521 1522 1524 1525 1526 1527 1529 1530 1531 1533 1534 1535 1536 1537 1538 1539 1540 1541 1542 1543 1543 1544
1499 1499 1500 1500 1500 1500 1500 1500 1501 1501 1503 1503 1504 1504 1505 1506 1507 1508 1509 1510 1511 1512 1513 1515 1516 1517 1518 1519 1521 1522 1523 1524 1526 1527 1528 1529 1531 1532 1533 1534 1535 1536 1537 1538 1539 1540 1541 1542 1543
1498 1499 1500 1499 1499 1499 1500 1500 1501 1500 1501 1501 1502 1502 1504 1505 1506 1507 1507 1508 1509 1510 1511 1513 1514 1515 1516 1518 1519 1520 1521 1522 1524 1525 1526 1527 1528 1530 1531 1532 1533 1534 1535 1537 1538 1539 1540 1540 1541
1498 1499 1500 1499 1499 1500 1500 1501 1500 1499 1500 1500 1500 1501 1502 1503 1504 1505 1506 1506 1507 1508 1510 1511 1512 1513 1514 1515 1516 1517 1519 1520 1521 1522 1523 1525 1526 1527 1529 1530 1531 1532 1533 1534 1535 1536 1538 1539 1539
1498 1501 1503 1500 1499 1499 1502 1502 1499 1498 1498 1498 1499 1499 1500 1501 1502 1503 1505 1505 1506 1507 1508 1509 1510 1510 1512 1513 1514 1515 1516 1517 1518 1519 1520 1522 1523 1524 1526 1527 1528 1529 1531 1532 1533 1534 1535 1536 1537
1502 1505 1505 1502 1499 1499 1500 1501 1498 1497 1497 1497 1498 1498 1499 1499 1500 1501 1502 1503 1504 1505 1505 1506 1507 1508 1509 1510 1511 1512 1513 1514 1515 1516 1517 1519 1520 1521 1522 1524 1525 1526 1528 1529 1530 1531 1532 1533 1535
1503 1505 1505 1504 1500 1500 1501 1499 1496 1496 1495 1496 1496 1497 1497 1498 1498 1499 1500 1501 1502 1503 1504 1504 1504 1505 1506 1508 1509 1509 1510 1511 1512 1513 1514 1515 1516 1518 1519 1520 1522 1523 1524 1525 1527 1528 1530 1531 1532
1502 1504 1505 1504 1500 1501 1499 1498 1494 1494 1493 1494 1494 1495 1495 1496 1497 1497 1498 1499 1499 1500 1501 1501 1501 1502 1503 1504 1505 1505 1506 1507 1508 1509 1510 1511 1513 1514 1515 1517 1518 1519 1520 1522 1523 1525 1526 1528 1529
1502 1504 1505 1503 1500 1499 1499 1497 1493 1492 1491 1492 1492 1493 1494 1494 1494 1495 1495 1496 1496 1497 1498 1498 1499 1499 1500 1501 1502 1503 1504 1504 1505 1506 1507 1507 1508 1510 1511 1512 1514 1515 1517 1518 1519 1521 1523 1524 1526
1502 1504 1504 1505 1503 1500 1500 1495 1492 1491 1490 1491 1491 1492 1492 1493 1493 1492 1492 1493 1494 1495 1495 1496 1496 1497 1498 1499 1499 1500 1501 1501 1501 1502 1502 1503 1505 1506 1507 1508 1510 1511 1513 1514 1516 1517 1519 1520 1522
1502 1501 1501 1503 1505 1507 1505 1503 1492 1490 1490 1490 1490 1491 1491 1492 1492 1491 1491 1491 1492 1492 1493 1493 1494 1494 1495 1495 1496 1496 1496 1496 1496 1497 1498 1499 1500 1501 1502 1504 1505 1507 1508 1510 1511 1513 1515 1516 1517
1501 1500 1501 1502 1506 1509 1508 1508 1496 1491 1490 1489 1489 1490 1490 1490 1490 1490 1490 1490 1490 1490 1490 1490 1490 1491 1491 1492 1492 1493 1493 1493 1493 1494 1494 1495 1496 1497 1498 1499 1501 1502 1503 1505 1507 1508 1510 1511 1512
1499 1501 1503 1506 1507 1509 1507 1507 1498 1493 1489 1487 1487 1488 1488 1489 1489 1488 1488 1488 1488 1487 1487 1487 1487 1487 1487 1488 1488 1489 1489 1489 1489 1489 1489 1490 1491 1492 1493 1494 1496 1498 1499 1500 1502 1503 1505 1506 1508
1500 1505 1511 1510 1513 1509 1505 1506 1497 1488 1486 1486 1486 1486 1487 1487 1486 1486 1486 1485 1484 1484 1484 1483 1483 1483 1483 1484 1484 1484 1484 1484 1484 1484 1485 1485 1486 1486 1487 1489 1490 1492 1493 1495 1496 1497 1499 1501 1502
1503 1505 1511 1510 1511 1509 1507 1503 1492 1487 1485 1484 1485 1485 1485 1484 1485 1484 1484 1483 1482 1482 1481 1480 1480 1479 1479 1479 1479 1479 1480 1479 1479 1480 1480 1481 1481 1481 1482 1483 1484 1485 1487 1488 1490 1491 1493 1495 1496
1503 1507 1508 1515 1518 1516 1507 1501 1491 1485 1484 1484 1484 1484 1483 1483 1483 1482 1481 1481 1480 1479 1478 1477 1476 1475 1475 1474 1474 1474 1475 1475 1475 1475 1475 1475 1476 1476 1477 1477 1478 1479 1480 1482 1483 1485 1487 1489 1490
1503 1506 1511 1513 1513 1510 1505 1502 1493 1487 1485 1484 1483 1483 1481 1480 1480 1479 1478 1478 1477 1476 1475 1474 1473 1471 1470 1470 1469 1469 1469 1470 1470 1470 1470 1470 1470 1471 1471 1471 1471 1472 1473 1475 1477 1478 1480 1482 1484
1505 1508 1510 1515 1516 1515 1508 1496 1485 1484 1482 1483 1482 1482 1481 1479 1478 1477 1476 1476 1474 1473 1471 1470 1468 1467 1466 1465 1465 1464 1464 1464 1465 1465 1465 1465 1465 1465 1465 1465 1465 1465 1466 1467 1469 1472 1474 1476 1478
1503 1505 1509 1511 1515 1519 1516 1499 1483 1481 1481 1481 1481 1480 1479 1478 1477 1476 1474 1473 1471 1469 1467 1465 1463 1462 1461 1460 1459 1459 1459 1459 1459 1459 1459 1459 1459 1459 1459 1459 1458 1458 1459 1461 1463 1465 1467 1469 1471